Meteógrafos Informações Meteorológicas em tempo real
Aeroporto de Bauru
15-12-2019 22:56

Temperatura atual: 29 graus 84 F    Umidade relativa: 70 %
Velocidade do vento: 02 nós 3 Km/h    Direção: 030 graus NNE
Ajuste do altímetro ..: 1017 HPA
Visibilidade: Ótima    Tempo presente: Céu Limpo

Observação
Data Hora BRTTempo°CUmidadePressãoVentoVisib.
15/12 - 22:56   Céu Limpo 29° 70% 1017 Norte-nordeste/3 km/h OK
15/12 - 21:56   ND ND° ND% ND /0 km/h ND
15/12 - 20:56   Céu Limpo 29° 70% 1016 Noroeste/3 km/h OK
15/12 - 19:56   Céu Limpo 30° 66% 1015 Norte-noroeste/1 km/h OK
15/12 - 18:56   Céu Limpo 31° 58% 1015 Norte-noroeste/10 km/h OK
15/12 - 17:55   Céu Limpo 32° 59% 1015 Noroeste/9 km/h OK
15/12 - 16:56   Parcialmente Nublado 31° 62% 1016 Noroeste/7 km/h OK
15/12 - 15:56   Parcialmente Nublado 31° 62% 1016 Noroeste/12 km/h OK
15/12 - 14:56   Parcialmente Nublado 31° 66% 1017 Noroeste/9 km/h OK
15/12 - 13:56   Parcialmente Nublado 30° 70% 1017 Norte/10 km/h OK
15/12 - 12:56   Parcialmente Nublado 28° 79% 1018 Norte-nordeste/9 km/h OK
15/12 - 11:56   Céu Encoberto 26° 88% 1018 Norte-nordeste/10 km/h OK
15/12 - 10:56   Céu Encoberto 24° 94% 1018 Norte-nordeste/12 km/h OK
15/12 - 09:56   Parcialmente Nublado 24° 94% 1018 Nordeste/9 km/h OK
15/12 - 08:56   Poucas nuvens esparsas 22° 100% 1018 Nordeste/7 km/h OK
15/12 - 07:56   Chovendo fraco 22° 100% 1018 Nordeste/10 km/h OK
15/12 - 06:56   Chovendo fraco 22° 100% 1018 Norte/5 km/h 6000
15/12 - 05:56   Chovendo fraco 22° 100% 1018 Nordeste/7 km/h OK
15/12 - 04:56   Poucas nuvens esparsas 22° 100% 1018 Leste/10 km/h OK
15/12 - 03:56   Parcialmente Nublado 22° 100% 1018 Nordeste/7 km/h OK
15/12 - 02:56   Parcialmente Nublado 22° 100% 1019 Noroeste/9 km/h OK
15/12 - 01:56   Céu Limpo 22° 100% 1018 Leste/5 km/h OK
15/12 - 00:56   Céu Limpo 23° 94% 1018 Leste/16 km/h OK
14/12 - 23:56   Céu Limpo 23° 100% 1019 Este-nordeste/12 km/h OK

Termo de Uso  |   Links Úteis  |   Imprensa  |  Anuncie  |  Fale Conosco  |  Versão Celular  |   Política de Privacidade

Apolo11.com - Todos os direitos reservados - 2000 - 2019

"Existem velas que iluminam tudo, menos o próprio candelabro" - Hebbel